START_TIME,STEP,MOV.,AL01,t_acc.,AL02,t_acc.,E37,t_acc.,H21,t_acc.
1979-03-08 22:23:20.910 ,0,0,0.,24.0,0.,24.0,0.,24.0,0.,24.0
1979-03-08 22:23:44.310 ,0,1,1.,24.0,0.,24.0,0.,24.0,0.,24.0
1979-03-08 22:24:08.310 ,1,1,0.,24.0,0.,24.0,0.,24.0,0.,24.0
1979-03-08 22:24:32.310 ,2,1,0.,24.0,0.,24.0,0.,24.0,0.,24.0
1979-03-08 22:24:56.310 ,3,1,0.,24.0,0.,24.0,0.,24.0,0.,24.0
1979-03-08 22:25:20.310 ,4,1,0.,24.0,0.,24.0,0.,24.0,0.,24.0
1979-03-08 22:25:44.310 ,5,1,0.,24.0,0.,24.0,0.,24.0,0.,24.0
1979-03-08 22:26:08.310 ,6,1,0.,24.0,0.,24.0,1.,24.0,0.,24.0
1979-03-08 22:26:32.310 ,7,1,2.,24.0,0.,24.0,0.,24.0,0.,24.0
1979-03-08 22:26:56.310 ,7,1,20.,24.0,0.,24.0,0.,24.0,0.,24.0
1979-03-08 22:27:20.310 ,6,1,6.,24.0,0.,24.0,1.,24.0,0.,24.0
1979-03-08 22:27:44.310 ,5,1,0.,24.0,0.,24.0,0.,24.0,0.,24.0
1979-03-08 22:28:08.310 ,4,1,2.,24.0,0.,24.0,0.,24.0,0.,24.0
1979-03-08 22:28:32.310 ,3,1,0.,24.0,0.,24.0,0.,24.0,0.,24.0
1979-03-08 22:28:56.310 ,2,1,0.,24.0,0.,24.0,0.,24.0,0.,24.0
1979-03-08 22:29:20.310 ,1,1,0.,24.0,0.,24.0,0.,24.0,0.,24.0
1979-03-08 22:29:44.310 ,0,1,0.,24.0,0.,24.0,0.,24.0,0.,24.0
1979-03-08 22:30:08.310 ,0,1,0.,24.0,0.,24.0,0.,24.0,0.,24.0
1979-03-08 22:30:32.310 ,1,1,0.,24.0,0.,24.0,0.,24.0,0.,24.0
1979-03-08 22:30:56.310 ,2,1,0.,24.0,0.,24.0,0.,24.0,0.,24.0
1979-03-08 22:31:20.310 ,3,1,0.,24.0,0.,24.0,0.,24.0,0.,24.0
1979-03-08 22:31:44.310 ,4,1,0.,24.0,0.,24.0,0.,24.0,0.,24.0
1979-03-08 22:32:08.310 ,5,1,0.,24.0,0.,24.0,0.,24.0,0.,24.0
1979-03-08 22:32:32.310 ,6,1,0.,24.0,0.,24.0,1.,24.0,0.,24.0
1979-03-08 22:32:56.310 ,7,1,3.,24.0,0.,24.0,0.,24.0,0.,24.0
1979-03-08 22:33:20.310 ,7,1,11.,24.0,0.,24.0,0.,24.0,0.,24.0
1979-03-08 22:33:44.310 ,6,1,8.,24.0,0.,24.0,1.,24.0,0.,24.0
1979-03-08 22:34:08.310 ,5,1,0.,24.0,0.,24.0,0.,24.0,0.,24.0
1979-03-08 22:34:32.310 ,4,1,0.,24.0,0.,24.0,0.,24.0,0.,24.0
1979-03-08 22:34:56.310 ,3,1,0.,24.0,0.,24.0,0.,24.0,0.,24.0
1979-03-08 22:35:20.310 ,2,1,0.,24.0,0.,24.0,0.,24.0,0.,24.0
1979-03-08 22:35:44.310 ,1,1,0.,24.0,0.,24.0,0.,24.0,0.,24.0
1979-03-08 22:36:08.310 ,0,1,1.,24.0,0.,24.0,0.,24.0,0.,24.0
1979-03-08 22:36:32.310 ,0,1,0.,24.0,0.,24.0,0.,24.0,0.,24.0
1979-03-08 22:36:56.310 ,1,1,0.,24.0,0.,24.0,0.,24.0,0.,24.0
1979-03-08 22:37:20.310 ,2,1,0.,24.0,1.,24.0,0.,24.0,0.,24.0
1979-03-08 22:37:44.310 ,3,1,0.,24.0,0.,24.0,0.,24.0,0.,24.0
1979-03-08 22:38:08.310 ,4,1,0.,24.0,0.,24.0,0.,24.0,0.,24.0
1979-03-08 22:38:32.310 ,5,1,0.,24.0,0.,24.0,0.,24.0,0.,24.0
1979-03-08 22:38:56.310 ,6,1,1.,24.0,0.,24.0,0.,24.0,0.,24.0
1979-03-08 22:39:20.310 ,7,1,1.,24.0,0.,24.0,0.,24.0,0.,24.0
1979-03-08 22:42:32.310 ,0,1,0.,24.0,0.,24.0,0.,24.0,0.,24.0
1979-03-08 22:42:56.310 ,0,1,0.,24.0,0.,24.0,0.,24.0,0.,24.0
1979-03-08 22:43:20.310 ,1,1,0.,24.0,0.,24.0,0.,24.0,0.,24.0
1979-03-08 22:43:44.310 ,2,1,1.,24.0,0.,24.0,0.,24.0,0.,24.0
1979-03-08 22:44:08.310 ,3,1,0.,24.0,0.,24.0,0.,24.0,0.,24.0
1979-03-08 22:44:32.310 ,4,1,0.,24.0,0.,24.0,0.,24.0,0.,24.0
1979-03-08 22:44:56.310 ,5,1,0.,24.0,0.,24.0,0.,24.0,0.,24.0
1979-03-08 22:55:20.310 ,0,1,0.,24.0,0.,24.0,0.,24.0,0.,24.0
1979-03-08 22:55:44.310 ,0,1,0.,24.0,0.,24.0,0.,24.0,0.,24.0
1979-03-08 22:56:08.310 ,1,1,0.,24.0,0.,24.0,0.,24.0,0.,24.0
1979-03-08 22:56:32.310 ,2,1,0.,24.0,0.,24.0,0.,24.0,0.,24.0
1979-03-08 22:56:56.310 ,3,1,0.,24.0,0.,24.0,0.,24.0,0.,24.0
1979-03-08 22:57:20.310 ,4,1,0.,24.0,0.,24.0,0.,24.0,0.,24.0
1979-03-08 22:57:44.310 ,5,1,0.,24.0,0.,24.0,1.,24.0,0.,24.0
1979-03-08 22:58:08.310 ,6,1,0.,24.0,0.,24.0,0.,24.0,0.,24.0
1979-03-08 22:58:32.310 ,7,1,0.,24.0,0.,24.0,0.,24.0,0.,24.0
1979-03-08 22:58:56.310 ,7,1,12.,24.0,0.,24.0,1.,24.0,0.,24.0
1979-03-08 22:59:20.310 ,6,1,8.,24.0,0.,24.0,0.,24.0,0.,24.0
1979-03-08 22:59:44.310 ,5,1,0.,24.0,0.,24.0,0.,24.0,0.,24.0
1979-03-08 23:00:08.310 ,4,1,0.,24.0,0.,24.0,0.,24.0,0.,24.0
1979-03-08 23:00:32.310 ,3,1,0.,24.0,0.,24.0,0.,24.0,0.,24.0
1979-03-08 23:00:56.310 ,2,1,0.,24.0,0.,24.0,0.,24.0,0.,24.0
1979-03-08 23:01:20.310 ,1,1,0.,24.0,0.,24.0,0.,24.0,0.,24.0
1979-03-08 23:01:44.310 ,0,1,0.,24.0,0.,24.0,0.,24.0,0.,24.0
1979-03-08 23:02:08.310 ,0,1,0.,24.0,0.,24.0,1.,24.0,0.,24.0
1979-03-08 23:02:32.310 ,1,1,0.,24.0,0.,24.0,0.,24.0,0.,24.0
1979-03-08 23:02:56.310 ,2,1,0.,24.0,0.,24.0,0.,24.0,0.,24.0
1979-03-08 23:03:20.310 ,3,1,0.,24.0,0.,24.0,0.,24.0,0.,24.0
1979-03-08 23:03:44.310 ,4,1,0.,24.0,0.,24.0,0.,24.0,0.,24.0
1979-03-08 23:04:08.310 ,5,1,0.,24.0,0.,24.0,0.,24.0,0.,24.0
1979-03-08 23:04:32.310 ,6,1,0.,24.0,0.,24.0,0.,24.0,0.,24.0
1979-03-08 23:04:56.310 ,7,1,2.,24.0,0.,24.0,0.,24.0,0.,24.0
1979-03-08 23:05:20.310 ,7,1,8.,24.0,0.,24.0,0.,24.0,0.,24.0
1979-03-08 23:05:44.310 ,6,1,4.,24.0,0.,24.0,0.,24.0,0.,24.0
1979-03-08 23:06:08.310 ,5,1,1.,24.0,0.,24.0,1.,24.0,0.,24.0
1979-03-08 23:06:32.310 ,4,1,0.,24.0,0.,24.0,0.,24.0,0.,24.0
1979-03-08 23:06:56.310 ,3,1,0.,24.0,0.,24.0,1.,24.0,0.,24.0
1979-03-08 23:07:20.310 ,2,1,0.,24.0,0.,24.0,0.,24.0,0.,24.0
1979-03-08 23:07:44.310 ,1,1,0.,24.0,0.,24.0,0.,24.0,0.,24.0
1979-03-08 23:08:08.310 ,0,1,0.,24.0,0.,24.0,0.,24.0,0.,24.0
1979-03-08 23:08:32.310 ,0,1,1.,24.0,0.,24.0,0.,24.0,0.,24.0
1979-03-08 23:08:56.310 ,1,1,0.,24.0,0.,24.0,0.,24.0,0.,24.0
1979-03-08 23:09:20.310 ,2,1,0.,24.0,0.,24.0,0.,24.0,0.,24.0
1979-03-08 23:09:44.310 ,0,0,,0,,0,,0,,0
1979-03-08 23:10:08.310 ,0,0,,0,,0,,0,,0
1979-03-08 23:10:08.310 ,4,1,0.,24.0,0.,24.0,1.,24.0,0.,24.0
1979-03-08 23:10:32.310 ,5,1,0.,24.0,0.,24.0,0.,24.0,0.,24.0
1979-03-08 23:10:56.310 ,6,1,0.,24.0,0.,24.0,0.,24.0,0.,24.0
1979-03-08 23:11:20.310 ,7,1,2.,24.0,0.,24.0,0.,24.0,0.,24.0
1979-03-08 23:11:44.310 ,7,1,9.,24.0,0.,24.0,0.,24.0,0.,24.0
1979-03-08 23:12:08.310 ,6,1,10.,24.0,0.,24.0,1.,24.0,0.,24.0
1979-03-08 23:12:32.310 ,5,1,0.,24.0,0.,24.0,0.,24.0,0.,24.0
1979-03-08 23:12:56.310 ,4,1,0.,24.0,0.,24.0,0.,24.0,0.,24.0
1979-03-08 23:13:20.310 ,3,1,0.,24.0,0.,24.0,0.,24.0,0.,24.0
1979-03-08 23:13:44.310 ,2,1,1.,24.0,0.,24.0,0.,24.0,0.,24.0
1979-03-08 23:14:08.310 ,1,1,0.,24.0,0.,24.0,0.,24.0,0.,24.0
1979-03-08 23:14:32.310 ,0,1,0.,24.0,0.,24.0,0.,24.0,0.,24.0
1979-03-08 23:14:56.310 ,0,1,0.,24.0,0.,24.0,0.,24.0,0.,24.0
1979-03-08 23:15:20.310 ,1,1,0.,24.0,0.,24.0,0.,24.0,0.,24.0
1979-03-08 23:15:44.310 ,2,1,0.,24.0,0.,24.0,0.,24.0,0.,24.0
1979-03-08 23:16:08.310 ,3,1,1.,24.0,0.,24.0,0.,24.0,0.,24.0
1979-03-08 23:16:32.310 ,4,1,0.,24.0,0.,24.0,0.,24.0,0.,24.0
1979-03-08 23:16:56.310 ,5,1,0.,24.0,0.,24.0,0.,24.0,0.,24.0
1979-03-08 23:17:20.310 ,6,1,1.,24.0,0.,24.0,0.,24.0,0.,24.0
1979-03-08 23:17:44.310 ,7,1,1.,24.0,0.,24.0,0.,24.0,0.,24.0
1979-03-08 23:18:08.310 ,7,1,8.,24.0,0.,24.0,0.,24.0,0.,24.0
1979-03-08 23:18:32.310 ,6,1,4.,24.0,0.,24.0,1.,24.0,0.,24.0
1979-03-08 23:18:56.310 ,5,1,0.,24.0,0.,24.0,0.,24.0,0.,24.0
1979-03-08 23:19:20.310 ,4,1,0.,24.0,0.,24.0,1.,24.0,0.,24.0
1979-03-08 23:19:44.310 ,3,1,0.,24.0,0.,24.0,1.,24.0,0.,24.0
1979-03-08 23:20:08.310 ,2,1,0.,24.0,0.,24.0,0.,24.0,0.,24.0
1979-03-08 23:20:32.310 ,1,1,0.,24.0,0.,24.0,0.,24.0,0.,24.0
1979-03-08 23:20:56.310 ,0,1,0.,24.0,0.,24.0,0.,24.0,0.,24.0
1979-03-08 23:21:20.310 ,0,1,0.,24.0,0.,24.0,1.,24.0,0.,24.0
1979-03-08 23:21:53.310 ,1,1,0.,24.0,0.,24.0,0.,24.0,0.,24.0
1979-03-08 23:22:08.310 ,2,1,0.,24.0,0.,24.0,0.,24.0,0.,24.0
1979-03-08 23:22:32.310 ,3,1,0.,24.0,0.,24.0,0.,24.0,0.,24.0
1979-03-08 23:22:56.310 ,4,1,0.,24.0,0.,24.0,0.,24.0,0.,24.0
1979-03-08 23:23:20.310 ,5,1,0.,24.0,1.,24.0,0.,24.0,0.,24.0
1979-03-08 23:23:44.310 ,6,1,0.,24.0,0.,24.0,0.,24.0,0.,24.0
1979-03-08 23:24:08.310 ,7,1,6.,24.0,0.,24.0,0.,24.0,0.,24.0
1979-03-08 23:24:32.310 ,7,1,7.,24.0,0.,24.0,0.,24.0,0.,24.0
1979-03-08 23:24:56.310 ,6,1,10.,24.0,0.,24.0,0.,24.0,0.,24.0
1979-03-08 23:25:20.310 ,5,1,0.,24.0,0.,24.0,0.,24.0,0.,24.0
1979-03-08 23:25:44.310 ,4,1,0.,24.0,0.,24.0,0.,24.0,0.,24.0
1979-03-08 23:26:08.310 ,3,1,0.,24.0,0.,24.0,0.,24.0,0.,24.0
1979-03-08 23:26:32.310 ,2,1,0.,24.0,0.,24.0,0.,24.0,0.,24.0
1979-03-08 23:26:56.310 ,1,1,1.,24.0,0.,24.0,0.,24.0,0.,24.0
1979-03-08 23:27:20.310 ,0,1,0.,24.0,0.,24.0,0.,24.0,0.,24.0
1979-03-08 23:27:44.310 ,0,1,0.,24.0,0.,24.0,0.,24.0,0.,24.0
1979-03-08 23:28:08.310 ,1,1,0.,24.0,0.,24.0,1.,24.0,0.,24.0
1979-03-08 23:28:32.310 ,2,1,0.,24.0,0.,24.0,0.,24.0,0.,24.0
1979-03-08 23:28:56.310 ,3,1,0.,24.0,0.,24.0,0.,24.0,0.,24.0
1979-03-08 23:29:20.310 ,4,1,1.,24.0,0.,24.0,2.,24.0,0.,24.0
1979-03-08 23:29:44.310 ,5,1,0.,24.0,0.,24.0,0.,24.0,0.,24.0
1979-03-08 23:30:08.310 ,6,0,,0,,0,,0,,0
1979-03-08 23:30:32.310 ,7,1,0.,24.0,0.,24.0,0.,24.0,0.,24.0
1979-03-08 23:30:56.310 ,7,1,12.,24.0,0.,24.0,0.,24.0,0.,24.0
1979-03-08 23:31:20.310 ,6,1,4.,24.0,0.,24.0,0.,24.0,0.,24.0
1979-03-08 23:31:44.310 ,5,1,0.,24.0,0.,24.0,0.,24.0,0.,24.0
1979-03-08 23:32:08.310 ,4,1,0.,24.0,0.,24.0,0.,24.0,0.,24.0
1979-03-08 23:32:32.310 ,3,1,0.,24.0,0.,24.0,0.,24.0,0.,24.0
1979-03-08 23:32:56.310 ,2,1,0.,24.0,0.,24.0,0.,24.0,0.,24.0
1979-03-08 23:33:20.310 ,1,1,0.,24.0,0.,24.0,0.,24.0,0.,24.0
1979-03-08 23:33:44.310 ,0,1,0.,24.0,0.,24.0,0.,24.0,0.,24.0
1979-03-08 23:34:08.310 ,0,1,0.,24.0,0.,24.0,0.,24.0,0.,24.0
1979-03-08 23:34:32.310 ,1,1,0.,24.0,0.,24.0,0.,24.0,0.,24.0
1979-03-08 23:34:56.310 ,2,1,0.,24.0,0.,24.0,1.,24.0,0.,24.0
1979-03-08 23:35:20.310 ,3,1,0.,24.0,0.,24.0,1.,24.0,0.,24.0
1979-03-08 23:35:44.310 ,4,1,0.,24.0,0.,24.0,0.,24.0,0.,24.0
1979-03-08 23:36:08.310 ,5,1,0.,24.0,0.,24.0,0.,24.0,0.,24.0
1979-03-08 23:36:32.310 ,6,1,0.,24.0,0.,24.0,0.,24.0,0.,24.0
1979-03-08 23:36:56.310 ,7,1,2.,24.0,0.,24.0,0.,24.0,0.,24.0
1979-03-08 23:37:20.310 ,7,1,9.,24.0,0.,24.0,0.,24.0,0.,24.0
1979-03-08 23:37:44.310 ,6,1,8.,24.0,0.,24.0,1.,24.0,0.,24.0
1979-03-08 23:38:08.310 ,5,1,0.,24.0,0.,24.0,0.,24.0,0.,24.0
1979-03-08 23:38:32.310 ,4,1,0.,24.0,0.,24.0,0.,24.0,0.,24.0
1979-03-08 23:38:56.310 ,3,1,1.,24.0,0.,24.0,0.,24.0,0.,24.0
1979-03-08 23:39:20.310 ,2,1,0.,24.0,0.,24.0,0.,24.0,0.,24.0
1979-03-08 23:39:44.310 ,1,1,0.,24.0,0.,24.0,0.,24.0,0.,24.0
1979-03-08 23:40:08.310 ,0,1,0.,24.0,0.,24.0,0.,24.0,0.,24.0
1979-03-08 23:40:32.310 ,0,1,0.,24.0,0.,24.0,0.,24.0,0.,24.0
1979-03-08 23:40:56.310 ,1,1,0.,24.0,0.,24.0,0.,24.0,0.,24.0
1979-03-08 23:41:20.310 ,2,1,0.,24.0,0.,24.0,0.,24.0,0.,24.0
1979-03-08 23:41:44.310 ,3,1,0.,24.0,0.,24.0,0.,24.0,0.,24.0
1979-03-08 23:42:08.310 ,4,1,0.,24.0,0.,24.0,0.,24.0,0.,24.0
1979-03-08 23:42:32.310 ,5,1,0.,24.0,0.,24.0,0.,24.0,0.,24.0
1979-03-08 23:42:56.310 ,6,1,0.,24.0,0.,24.0,0.,24.0,0.,24.0
1979-03-08 23:43:20.310 ,7,1,4.,24.0,0.,24.0,0.,24.0,0.,24.0
1979-03-08 23:43:44.310 ,7,1,9.,24.0,0.,24.0,0.,24.0,0.,24.0
1979-03-08 23:44:08.320 ,6,1,10.,24.0,0.,24.0,0.,24.0,0.,24.0
1979-03-08 23:44:32.320 ,5,1,0.,24.0,0.,24.0,0.,24.0,0.,24.0
1979-03-08 23:44:56.320 ,4,1,0.,24.0,0.,24.0,0.,24.0,0.,24.0
1979-03-08 23:45:20.320 ,3,1,0.,24.0,0.,24.0,0.,24.0,0.,24.0
1979-03-08 23:45:44.320 ,2,1,0.,24.0,0.,24.0,0.,24.0,0.,24.0
1979-03-08 23:46:08.320 ,1,1,0.,24.0,0.,24.0,0.,24.0,0.,24.0
1979-03-08 23:21:20.310 ,0,1,0.,24.0,0.,24.0,1.,24.0,0.,24.0
1979-03-08 23:21:53.310 ,1,1,0.,24.0,0.,24.0,0.,24.0,0.,24.0
1979-03-08 23:22:08.310 ,2,1,0.,24.0,0.,24.0,0.,24.0,0.,24.0
1979-03-08 23:22:32.310 ,3,1,0.,24.0,0.,24.0,0.,24.0,0.,24.0
1979-03-08 23:22:56.310 ,4,1,0.,24.0,0.,24.0,0.,24.0,0.,24.0
1979-03-08 23:23:20.310 ,5,1,0.,24.0,1.,24.0,0.,24.0,0.,24.0
1979-03-08 23:23:44.310 ,6,1,0.,24.0,0.,24.0,0.,24.0,0.,24.0
1979-03-08 23:24:08.310 ,7,1,6.,24.0,0.,24.0,0.,24.0,0.,24.0
1979-03-08 23:24:32.310 ,7,1,7.,24.0,0.,24.0,0.,24.0,0.,24.0
1979-03-08 23:24:56.310 ,6,1,10.,24.0,0.,24.0,0.,24.0,0.,24.0
1979-03-08 23:25:20.310 ,5,1,0.,24.0,0.,24.0,0.,24.0,0.,24.0
1979-03-08 23:25:44.310 ,4,1,0.,24.0,0.,24.0,0.,24.0,0.,24.0
1979-03-08 23:26:08.310 ,3,1,0.,24.0,0.,24.0,0.,24.0,0.,24.0
1979-03-08 23:26:32.310 ,2,1,0.,24.0,0.,24.0,0.,24.0,0.,24.0
1979-03-08 23:26:56.310 ,1,1,1.,24.0,0.,24.0,0.,24.0,0.,24.0
1979-03-08 23:27:20.310 ,0,1,0.,24.0,0.,24.0,0.,24.0,0.,24.0
1979-03-08 23:27:44.310 ,0,1,0.,24.0,0.,24.0,0.,24.0,0.,24.0
1979-03-08 23:28:08.310 ,1,1,0.,24.0,0.,24.0,1.,24.0,0.,24.0
1979-03-08 23:28:32.310 ,2,1,0.,24.0,0.,24.0,0.,24.0,0.,24.0
1979-03-08 23:28:56.310 ,3,1,0.,24.0,0.,24.0,0.,24.0,0.,24.0
1979-03-08 23:29:20.310 ,4,1,1.,24.0,0.,24.0,2.,24.0,0.,24.0
1979-03-08 23:29:44.310 ,5,1,0.,24.0,0.,24.0,0.,24.0,0.,24.0
1979-03-08 23:30:08.310 ,6,0,,0,,0,,0,,0
1979-03-08 23:30:32.310 ,7,1,0.,24.0,0.,24.0,0.,24.0,0.,24.0
1979-03-08 23:30:56.310 ,7,1,12.,24.0,0.,24.0,0.,24.0,0.,24.0
1979-03-08 23:31:20.310 ,6,1,4.,24.0,0.,24.0,0.,24.0,0.,24.0
1979-03-08 23:31:44.310 ,5,1,0.,24.0,0.,24.0,0.,24.0,0.,24.0
1979-03-08 23:32:08.310 ,4,1,0.,24.0,0.,24.0,0.,24.0,0.,24.0
1979-03-08 23:32:32.310 ,3,1,0.,24.0,0.,24.0,0.,24.0,0.,24.0
1979-03-08 23:32:56.310 ,2,1,0.,24.0,0.,24.0,0.,24.0,0.,24.0
1979-03-08 23:33:20.310 ,1,1,0.,24.0,0.,24.0,0.,24.0,0.,24.0
1979-03-08 23:33:44.310 ,0,1,0.,24.0,0.,24.0,0.,24.0,0.,24.0
1979-03-08 23:34:08.310 ,0,1,0.,24.0,0.,24.0,0.,24.0,0.,24.0
1979-03-08 23:34:32.310 ,1,1,0.,24.0,0.,24.0,0.,24.0,0.,24.0
1979-03-08 23:34:56.310 ,2,1,0.,24.0,0.,24.0,1.,24.0,0.,24.0
1979-03-08 23:35:20.310 ,3,1,0.,24.0,0.,24.0,1.,24.0,0.,24.0
1979-03-08 23:35:44.310 ,4,1,0.,24.0,0.,24.0,0.,24.0,0.,24.0
1979-03-08 23:36:08.310 ,5,1,0.,24.0,0.,24.0,0.,24.0,0.,24.0
1979-03-08 23:36:32.310 ,6,1,0.,24.0,0.,24.0,0.,24.0,0.,24.0
1979-03-08 23:36:56.310 ,7,1,2.,24.0,0.,24.0,0.,24.0,0.,24.0
1979-03-08 23:37:20.310 ,7,1,9.,24.0,0.,24.0,0.,24.0,0.,24.0
1979-03-08 23:37:44.310 ,6,1,8.,24.0,0.,24.0,1.,24.0,0.,24.0
1979-03-08 23:38:08.310 ,5,1,0.,24.0,0.,24.0,0.,24.0,0.,24.0
1979-03-08 23:38:32.310 ,4,1,0.,24.0,0.,24.0,0.,24.0,0.,24.0
1979-03-08 23:38:56.310 ,3,1,1.,24.0,0.,24.0,0.,24.0,0.,24.0
1979-03-08 23:39:20.310 ,2,1,0.,24.0,0.,24.0,0.,24.0,0.,24.0
1979-03-08 23:39:44.310 ,1,1,0.,24.0,0.,24.0,0.,24.0,0.,24.0
1979-03-08 23:40:08.310 ,0,1,0.,24.0,0.,24.0,0.,24.0,0.,24.0
1979-03-08 23:40:32.310 ,0,1,0.,24.0,0.,24.0,0.,24.0,0.,24.0
1979-03-08 23:40:56.310 ,1,1,0.,24.0,0.,24.0,0.,24.0,0.,24.0
1979-03-08 23:41:20.310 ,2,1,0.,24.0,0.,24.0,0.,24.0,0.,24.0
1979-03-08 23:41:44.310 ,3,1,0.,24.0,0.,24.0,0.,24.0,0.,24.0
1979-03-08 23:42:08.310 ,4,1,0.,24.0,0.,24.0,0.,24.0,0.,24.0
1979-03-08 23:42:32.310 ,5,1,0.,24.0,0.,24.0,0.,24.0,0.,24.0
1979-03-08 23:42:56.310 ,6,1,0.,24.0,0.,24.0,0.,24.0,0.,24.0
1979-03-08 23:43:20.310 ,7,1,4.,24.0,0.,24.0,0.,24.0,0.,24.0
1979-03-08 23:43:44.310 ,7,1,9.,24.0,0.,24.0,0.,24.0,0.,24.0
1979-03-08 23:44:08.320 ,6,1,10.,24.0,0.,24.0,0.,24.0,0.,24.0
1979-03-08 23:44:32.320 ,5,1,0.,24.0,0.,24.0,0.,24.0,0.,24.0
1979-03-08 23:44:56.320 ,4,1,0.,24.0,0.,24.0,0.,24.0,0.,24.0
1979-03-08 23:45:20.320 ,3,1,0.,24.0,0.,24.0,0.,24.0,0.,24.0
1979-03-08 23:45:44.320 ,2,1,0.,24.0,0.,24.0,0.,24.0,0.,24.0
1979-03-08 23:46:08.320 ,1,1,0.,24.0,0.,24.0,0.,24.0,0.,24.0
1979-03-08 23:46:32.320 ,0,1,0.,24.0,0.,24.0,0.,24.0,0.,24.0
1979-03-08 23:46:56.320 ,0,1,0.,24.0,0.,24.0,0.,24.0,0.,24.0
1979-03-08 23:47:20.320 ,1,1,0.,24.0,0.,24.0,0.,24.0,0.,24.0
1979-03-08 23:47:44.320 ,2,1,0.,24.0,0.,24.0,1.,24.0,0.,24.0
1979-03-08 23:48:08.320 ,3,1,0.,24.0,0.,24.0,0.,24.0,0.,24.0
1979-03-08 23:48:32.320 ,4,1,0.,24.0,0.,24.0,0.,24.0,0.,24.0
1979-03-08 23:48:56.320 ,5,1,0.,24.0,0.,24.0,0.,24.0,0.,24.0
1979-03-08 23:49:20.320 ,6,1,0.,24.0,0.,24.0,0.,24.0,0.,24.0
1979-03-08 23:49:44.320 ,7,1,1.,24.0,0.,24.0,0.,24.0,0.,24.0
1979-03-08 23:50:08.320 ,7,1,5.,24.0,0.,24.0,0.,24.0,0.,24.0
1979-03-08 23:50:32.320 ,6,1,5.,24.0,0.,24.0,0.,24.0,0.,24.0
1979-03-08 23:50:56.320 ,5,1,0.,24.0,0.,24.0,0.,24.0,0.,24.0
1979-03-08 23:51:20.320 ,4,1,0.,24.0,0.,24.0,0.,24.0,0.,24.0
1979-03-08 23:51:44.320 ,3,1,0.,24.0,0.,24.0,1.,24.0,0.,24.0
1979-03-08 23:52:08.320 ,2,1,0.,24.0,0.,24.0,0.,24.0,0.,24.0
1979-03-08 23:52:32.320 ,1,1,0.,24.0,0.,24.0,1.,24.0,0.,24.0
1979-03-08 23:52:56.320 ,0,1,0.,24.0,0.,24.0,1.,24.0,0.,24.0
1979-03-08 23:53:20.320 ,0,0,0.,24.0,0.,24.0,0.,24.0,0.,24.0
1979-03-08 23:54:01.120 ,0,0,,0,,0,,0,,0
1979-03-08 23:54:08.320 ,2,1,0.,24.0,0.,24.0,1.,24.0,0.,24.0
1979-03-08 23:54:32.320 ,3,1,0.,24.0,0.,24.0,0.,24.0,0.,24.0
1979-03-08 23:54:56.320 ,0,0,0.,24.0,0.,24.0,0.,24.0,0.,24.0
1979-03-08 23:58:14.920 ,0,0,,0,,0,,0,,0
1979-03-08 23:58:32.320 ,2,1,0.,24.0,0.,24.0,0.,24.0,0.,24.0
1979-03-08 23:58:56.320 ,1,1,0.,24.0,0.,24.0,1.,24.0,0.,24.0
1979-03-08 23:59:20.320 ,0,1,0.,24.0,0.,24.0,0.,24.0,0.,24.0
1979-03-08 23:59:44.320 ,0,1,0.,24.0,0.,24.0,0.,24.0,0.,24.0
1979-03-09 00:00:08.320 ,1,1,0.,24.0,0.,24.0,1.,24.0,0.,24.0
